[[{"header":{"parameterUnit":"m.s-1","parameterCategory":1,"la1":30.2992,"la2":30.254,"lo1":-89.0895,"lo2":-89.0443,"dy":0.0025,"dx":0.0025,"nx":19,"ny":19,"refTime":"2026-05-16T09:00:00:Z","depth":0,"parameterNumber":2,"parameterNumberName":"U-component_of_WINDS"},"data":[0,0,0,-3.9997,-3.9998,-4.0038,-4.0038,-4.01,-4.0101,0,0,0,0,0,0,0,0,0,0,0,-3.9993,-3.9993,-3.9997,-3.9999,-4.0038,-4.0038,-4.01,-4.0101,0,0,0,0,0,0,0,0,0,0,0,-3.9992,-3.9993,-3.9994,-3.9999,-4.0038,-4.0038,-4.01,-4.0066,0,0,0,0,0,0,0,0,0,0,-4.0026,-4.0028,-3.9993,-3.9994,-3.9999,-4.0038,-4.0038,-4.0064,-4.0068,-4.0087,0,-4.0106,0,-4.0105,-4.0106,-4.0106,0,0,0,-3.9993,-4.0024,-4.0029,-3.9994,-3.9999,-4.0038,-4.0019,-4.0066,-4.0071,-4.0093,-4.0107,-4.0109,-4.0106,-4.0106,-4.0107,-4.0234,-4.0235,0,0,-3.9991,-4.0003,-4.0026,-4.0032,-4.0027,-4.0018,-4.002,-4.0069,-4.0085,-4.0107,-4.011,-4.0107,-4.0107,-4.0107,-4.0233,-4.0234,0,0,0,-3.9988,-4.0002,-4.0005,-4.003,-4.0036,-4.0019,-4.0022,-4.0083,-4.0083,-4.011,-4.0107,-4.0107,-4.0108,-4.0232,-4.0234,-4.0285,0,0,0,-3.9987,-4.0,-4.0004,-4.0012,-4.0036,-4.006,-4.0035,-4.0079,-4.0084,-4.0107,-4.0107,-4.0109,-4.0231,-4.0233,-4.0282,-4.0307,0,0,0,-3.9988,-4.0,-4.0008,-4.0013,-4.003,-4.0059,-4.0062,-4.008,-4.0083,-4.0106,-4.0109,-4.0231,-4.0233,-4.0279,-4.0302,-4.0343,0,0,0,-3.9992,-4.0053,-4.0009,-4.0077,-4.003,-4.0091,-4.0061,-4.0106,-4.0133,-4.0108,-4.0231,-4.0233,-4.0278,-4.0299,-4.034,-4.0378,-4.0396,0,0,-4.0076,-4.0064,-4.0103,-4.0065,-4.0137,-4.0084,-4.0164,-4.0177,-4.0169,-4.0213,-4.0216,-4.0283,-4.0301,-4.0342,-4.0495,-4.0509,0,0,0,-4.0134,-4.0162,-4.0179,-4.0205,-4.0217,-4.0229,-4.0228,-4.0234,-4.027,-4.0194,-4.031,-4.032,-4.0344,-4.0362,-4.0374,-4.0392,-4.0243,-4.0243,-4.0242,-4.0268,-4.0255,-4.0319,-4.0311,-4.0337,-4.0337,-4.0357,-4.0364,-4.0342,-4.037,-4.0382,-4.0476,-4.0498,-4.0506,-4.0526,-4.0403,-4.0404,-4.0404,-4.0404,-4.0389,-4.0426,-4.0399,-4.0451,-4.0437,-4.0481,-4.0484,-4.0468,-4.0507,-4.0466,-4.0486,-4.044,-4.0522,-4.0539,-4.0408,-4.0407,-4.0407,-4.0406,-4.0406,-4.0474,-4.0489,-4.0496,-4.0532,-4.0563,-4.0554,-4.0592,-4.0579,-4.0566,-4.0586,-4.0597,-4.0596,-4.0592,-4.0593,-4.0593,-4.0594,-4.0594,-4.0594,-4.0594,-4.0558,-4.0564,-4.0597,-4.0617,-4.0633,-4.0652,-4.0654,-4.0669,-4.0682,-4.0669,-4.0669,-4.0645,-4.0534,-4.0505,-4.0599,-4.0598,-4.0598,-4.0597,-4.0597,-4.0681,-4.0652,-4.0704,-4.072,-4.0743,-4.0774,-4.0758,-4.079,-4.08,-4.082,-4.0793,-4.0713,-4.0699,-4.069,-4.0666,-4.0796,-4.0796,-4.0796,-4.0796,-4.0751,-4.0744,-4.0795,-4.0821,-4.0845,-4.0837,-4.0897,-4.0901,-4.09,-4.0906,-4.0886,-4.0854,-4.0845,-4.0836,-4.0823,-4.08,-4.0962,-4.0962,-4.0962,-4.0826,-4.0821,-4.0874,-4.0873,-4.0891,-4.0906,-4.0962,-4.0994,-4.0987,-4.0969,-4.091,-4.0903,-4.0851,-4.0835,-4.0812,-4.0792,-4.075,0,0]},{"header":{"parameterUnit":"m.s-1","parameterCategory":1,"la1":30.2992,"la2":30.254,"lo1":-89.0895,"lo2":-89.0443,"dy":0.0025,"dx":0.0025,"nx":19,"ny":19,"refTime":"2026-05-16T09:00:00:Z","depth":0,"parameterNumber":3,"parameterNumberName":"V-component_of_WINDS"},"data":[0,0,0,4.8281,4.8281,4.8299,4.8299,4.8326,4.8327,0,0,0,0,0,0,0,0,0,0,0,4.8278,4.8279,4.8281,4.8281,4.8299,4.8299,4.8326,4.8327,0,0,0,0,0,0,0,0,0,0,0,4.8278,4.8279,4.8279,4.8281,4.8299,4.8299,4.8326,4.8311,0,0,0,0,0,0,0,0,0,0,4.8293,4.8293,4.8278,4.8279,4.8282,4.8299,4.8299,4.831,4.8312,4.832,0,4.8328,0,4.8328,4.8329,4.8329,0,0,0,4.8279,4.8292,4.8294,4.8279,4.8282,4.8299,4.8291,4.8311,4.8313,4.8323,4.8329,4.833,4.8329,4.8329,4.8329,4.8385,4.8386,0,0,4.8278,4.8283,4.8293,4.8296,4.8294,4.829,4.8291,4.8312,4.8319,4.8329,4.833,4.8329,4.8329,4.8329,4.8385,4.8385,0,0,0,4.8277,4.8282,4.8284,4.8295,4.8298,4.8291,4.8292,4.8318,4.8319,4.833,4.8329,4.8329,4.833,4.8385,4.8385,4.8409,0,0,0,4.8276,4.8281,4.8284,4.8287,4.8298,4.8308,4.8297,4.8317,4.8319,4.8329,4.8329,4.833,4.8384,4.8385,4.8407,4.8419,0,0,0,4.8276,4.8281,4.8285,4.8287,4.8295,4.8308,4.8309,4.8317,4.8319,4.8329,4.833,4.8384,4.8385,4.8406,4.8417,4.8436,0,0,0,4.8277,4.8304,4.8285,4.8316,4.8295,4.8323,4.8309,4.8329,4.8341,4.833,4.8384,4.8385,4.8405,4.8415,4.8435,4.8453,4.8462,0,0,4.8314,4.8309,4.8326,4.831,4.8343,4.8319,4.8355,4.8361,4.8357,4.8376,4.8377,4.8408,4.8417,4.8436,4.8505,4.8512,0,0,0,4.834,4.8352,4.836,4.8372,4.8378,4.8384,4.8384,4.8386,4.8402,4.8368,4.842,4.8425,4.8436,4.8444,4.845,4.846,4.8389,4.8389,4.8389,4.8398,4.8393,4.8422,4.842,4.8431,4.8432,4.8441,4.8444,4.8434,4.8447,4.8453,4.8496,4.8506,4.851,4.852,4.8462,4.8462,4.8462,4.8462,4.8452,4.8469,4.8458,4.8482,4.8477,4.8496,4.8499,4.8491,4.8509,4.849,4.85,4.848,4.8517,4.8526,4.8464,4.8463,4.8463,4.8463,4.8463,4.849,4.8497,4.8501,4.8519,4.8533,4.853,4.8548,4.8542,4.8537,4.8546,4.8552,4.8552,4.8551,4.8549,4.8549,4.855,4.855,4.855,4.855,4.8528,4.8531,4.8547,4.8558,4.8566,4.8575,4.8577,4.8584,4.8591,4.8585,4.8585,4.8575,4.8522,4.8509,4.8552,4.8552,4.8552,4.8551,4.8551,4.8585,4.8571,4.8597,4.8605,4.8617,4.8633,4.8626,4.8642,4.8647,4.8656,4.8644,4.8606,4.86,4.8596,4.8585,4.8645,4.8645,4.8645,4.8645,4.8617,4.8614,4.864,4.8654,4.8666,4.8663,4.8693,4.8695,4.8695,4.8698,4.8689,4.8674,4.867,4.8666,4.866,4.865,4.8725,4.8725,4.8726,4.8652,4.865,4.8677,4.8678,4.8688,4.8696,4.8725,4.874,4.8737,4.8729,4.8701,4.8697,4.8673,4.8666,4.8656,4.8647,4.8628,0,0]}]]